Huron, SD

11:57 PM CST on February 20, 2018 (GMT -0600)
Huron Regional

Weather History for KHON - February, 2013

Change the Weather History Date:

Monday, February 25, 2013

  Actual Average Record
Temperature  
Mean Temperature 17 °F 25 °F  
Max Temperature 31 °F 35 °F 71 °F (1958)
Min Temperature 3 °F 15 °F -18 °F (1962)
Degree Days  
Heating Degree Days 48 40  
Month to date heating degree days 1126 1098  
Since 1 July heating degree days 5693 5715  
Cooling Degree Days 0 0  
Month to date cooling degree days 0 0  
Year to date cooling degree days 0 0  
Moisture  
Dew Point 11 °F    
Average Humidity 85    
Maximum Humidity 100    
Minimum Humidity 69    
Precipitation  
Precipitation 0.00 in 0.03 in 0.15 in (2015)
Month to date precipitation 1.10 0.52  
Year to date precipitation 1.38 1.02  
Snow  
Snow 0.00 in 0.30 in 2.40 in (2015)
Month to date snowfall 13.8 6.5  
Since 1 July snowfall 33.2 30.1  
Snow Depth 9.00 in    
Sea Level Pressure  
Sea Level Pressure 30.09 in    
Wind  
Wind Speed 3 mph (WNW)    
Max Wind Speed 9 mph    
Max Gust Speed 13 mph    
Visibility 3 miles    
Events Fog    
T = Trace of Precipitation, MM = Missing Value Source: NWS Daily Summary

Daily Weather History Graph

Daily Weather History Graph

Search for Another Location

Airport or City:

Trip Planner

Search our weather history database for the weather conditions in past years. The results will help you decide how hot, cold, wet, or windy it might be!

Date:

Astronomy

Feb. 25, 2013 Rise Set
Actual Time 7:16 AM CST 6:16 PM CST
Civil Twilight 6:47 AM CST 6:45 PM CST
Nautical Twilight 6:13 AM CST 7:19 PM CST
Astronomical Twilight 5:39 AM CST 7:52 PM CST
Moon 6:33 PM CST (2/25) 6:46 AM CST (2/25)
Length of Visible Light 11h 58m
Length of Day
10h 59m
Full, 100% of the Moon is Illuminated
Feb 25
Full
Feb 25
Full
Mar 4
Last Quarter
Mar 11
New
Mar 19
First Quarter

Hourly Weather History & Observations

Time (CST) Temp. Windchill Dew Point Humidity Pressure Visibility Wind Dir Wind Speed Gust Speed Precip Events Conditions
12:51 AM 17.6 °F 8.2 °F 17.6 °F 100% 30.07 in 2.5 mi WNW 6.9 mph - N/A   Clear
12:55 AM 18.0 °F 8.7 °F 17.1 °F 96% 30.13 in 2.5 mi WNW 6.9 mph - N/A   Clear
1:29 AM 15.8 °F 7.2 °F 14.0 °F 93% 30.07 in 3.0 mi NW 5.8 mph - N/A   Clear
1:55 AM 16.0 °F 8.8 °F 15.1 °F 96% 30.13 in 4.0 mi NW 4.6 mph - N/A   Clear
2:50 AM 10.4 °F 4.0 °F 10.4 °F 100% 30.06 in 2.0 mi WNW 3.5 mph - N/A   Partly Cloudy
2:53 AM 12.2 °F 6.1 °F 10.4 °F 92% 30.06 in 1.0 mi WNW 3.5 mph - N/A   Mist
2:55 AM 12.0 °F 5.9 °F 10.0 °F 92% 30.13 in 0.8 mi WNW 3.5 mph - N/A   Mist
3:05 AM 12.2 °F 6.1 °F 10.4 °F 92% 30.06 in 0.2 mi WNW 3.5 mph - N/A Fog Light Freezing Fog
3:55 AM 12.9 °F 2.6 °F 10.9 °F 92% 30.13 in 0.2 mi WNW 6.9 mph - N/A Fog Light Freezing Fog
4:01 AM 12.2 °F 1.7 °F 10.4 °F 92% 30.06 in 1.0 mi WNW 6.9 mph - N/A   Mist
4:05 AM 12.2 °F 1.7 °F 10.4 °F 92% 30.06 in 2.0 mi WNW 6.9 mph - N/A   Partly Cloudy
4:14 AM 10.4 °F -1.5 °F 8.6 °F 92% 30.07 in 3.0 mi WNW 8.1 mph - N/A   Clear
4:55 AM 7.0 °F -4.5 °F 5.0 °F 92% 30.14 in 4.0 mi WNW 6.9 mph - N/A   Clear
5:55 AM 10.0 °F 0.4 °F 8.1 °F 92% 30.17 in 5.0 mi WNW 5.8 mph - N/A   Clear
6:55 AM 5.0 °F -2.1 °F 3.9 °F 95% 30.17 in 4.0 mi NNW 3.5 mph - N/A   Clear
7:55 AM 7.0 °F - 3.9 °F 87% 30.17 in 3.0 mi Calm Calm - N/A   Clear
8:15 AM 3.2 °F - -0.4 °F 85% 30.10 in 2.5 mi Calm Calm - N/A   Partly Cloudy
8:26 AM 3.2 °F -4.2 °F 1.4 °F 92% 30.10 in 1.8 mi NE 3.5 mph - N/A   Mostly Cloudy
8:41 AM 3.2 °F -4.2 °F 3.2 °F 100% 30.11 in 0.8 mi ESE 3.5 mph - N/A   Mist
8:46 AM 5.0 °F -2.1 °F 3.2 °F 92% 30.11 in 2.5 mi ESE 3.5 mph - N/A   Mostly Cloudy
8:50 AM 5.0 °F -2.1 °F 3.2 °F 92% 30.11 in 3.0 mi East 3.5 mph - N/A   Scattered Clouds
8:55 AM 5.0 °F - 3.0 °F 92% 30.18 in 4.0 mi Calm Calm - N/A   Scattered Clouds
9:55 AM 12.9 °F 6.9 °F 10.0 °F 88% 30.17 in 7.0 mi NW 3.5 mph - N/A   Clear
10:55 AM 17.1 °F 11.7 °F 12.9 °F 84% 30.16 in 8.0 mi NW 3.5 mph - N/A   Clear
11:55 AM 21.9 °F - 16.0 °F 78% 30.15 in 8.0 mi Calm Calm - N/A   Clear
12:55 PM 25.0 °F - 18.0 °F 75% 30.14 in 9.0 mi Calm Calm - N/A   Clear
1:55 PM 28.9 °F - 19.0 °F 67% 30.11 in 9.0 mi Calm Calm - N/A   Clear
2:55 PM 28.0 °F - 19.0 °F 69% 30.09 in 8.0 mi Calm Calm - N/A   Clear
3:55 PM 26.1 °F 20.5 °F 19.0 °F 75% 30.09 in 8.0 mi East 4.6 mph - N/A   Clear
4:55 PM 23.0 °F 17.0 °F 18.0 °F 81% 30.10 in 7.0 mi SE 4.6 mph - N/A   Clear
5:55 PM 21.9 °F 14.5 °F 17.1 °F 82% 30.09 in 7.0 mi SSE 5.8 mph - N/A   Clear
6:55 PM 18.0 °F - 16.0 °F 92% 30.10 in 7.0 mi Calm Calm - N/A   Clear
7:52 PM 14.0 °F - 12.2 °F 93% 30.01 in 1.8 mi Calm Calm - N/A   Clear
7:55 PM 14.0 °F - 12.0 °F 92% 30.09 in 1.2 mi Calm Calm - N/A   Clear
8:06 PM 15.8 °F - 12.2 °F 86% 30.00 in 3.0 mi Calm Calm - N/A   Clear
8:55 PM 12.9 °F - 12.0 °F 96% 30.08 in 3.0 mi Calm Calm - N/A   Clear
9:14 PM 10.4 °F - 8.6 °F 92% 29.99 in 2.0 mi Calm Calm - N/A   Partly Cloudy
9:16 PM 10.4 °F - 8.6 °F 92% 29.99 in 0.8 mi Calm Calm - N/A   Mist
9:25 PM 10.4 °F 4.0 °F 8.6 °F 92% 29.99 in 0.2 mi East 3.5 mph - N/A Fog Light Freezing Fog
9:55 PM 9.0 °F - 7.0 °F 92% 30.07 in 0.2 mi Calm Calm - N/A Fog Light Freezing Fog
10:24 PM 10.4 °F 0.8 °F 8.6 °F 92% 29.99 in 0.8 mi SE 5.8 mph - N/A   Mist
10:32 PM 10.4 °F 0.8 °F 8.6 °F 92% 29.99 in 1.0 mi SE 5.8 mph - N/A   Mist
10:42 PM 10.4 °F 0.8 °F 10.4 °F 100% 29.99 in 0.5 mi SSE 5.8 mph - N/A Fog Light Freezing Fog
10:51 PM 12.2 °F 2.9 °F 10.4 °F 92% 29.99 in 0.5 mi SE 5.8 mph - N/A Fog Light Freezing Fog
10:55 PM 12.0 °F 2.7 °F 10.9 °F 95% 30.06 in 0.5 mi SSE 5.8 mph - N/A Fog Light Freezing Fog
11:12 PM 12.2 °F 4.3 °F 10.4 °F 92% 29.99 in 0.2 mi SE 4.6 mph - N/A Fog Light Freezing Fog
11:31 PM 12.2 °F - 10.4 °F 92% 29.99 in 0.5 mi Calm Calm - N/A Fog Light Freezing Fog
11:55 PM 14.0 °F - 12.9 °F 95% 30.06 in 0.5 mi Calm Calm - N/A Fog Light Freezing Fog